ANZ432 NZAA-NZWN

Flight info

Callsign ANZ432
Flight time N/A
Altitude 34000
Route IGBAT Y506 TPAPA
Aircraft A320/M-SDE3FGHIRWY/LB1

Departure

Time 2026-05-06 02:47
Airport Auckland International Airport (NZAA)

Arrival

Time N/A
Airport Wellington International Airport (NZWN)
Time Latitude Longitude Altitude Speed Heading
2026-05-06 02:26 -37.00736 174.79010 26 ft 0 kts 341°
2026-05-06 02:37 -37.00739 174.79011 25 ft 3 kts 341°
2026-05-06 02:37 -37.00764 174.79022 30 ft 4 kts 337°
2026-05-06 02:38 -37.00787 174.79038 31 ft 4 kts 316°
2026-05-06 02:38 -37.00800 174.79063 25 ft 4 kts 269°
2026-05-06 02:38 -37.00798 174.79078 25 ft 1 kts 251°
2026-05-06 02:38 -37.00798 174.79080 25 ft 0 kts 251°
2026-05-06 02:41 -37.00799 174.79076 25 ft 2 kts 251°
2026-05-06 02:41 -37.00805 174.79053 25 ft 4 kts 251°
2026-05-06 02:41 -37.00818 174.79005 25 ft 7 kts 251°
2026-05-06 02:41 -37.00837 174.78933 29 ft 10 kts 251°
2026-05-06 02:42 -37.00862 174.78840 25 ft 13 kts 251°
2026-05-06 02:42 -37.00894 174.78726 28 ft 15 kts 249°
2026-05-06 02:42 -37.00935 174.78591 25 ft 18 kts 250°
2026-05-06 02:42 -37.00975 174.78444 26 ft 12 kts 251°
2026-05-06 02:43 -37.01040 174.78375 28 ft 14 kts 202°
2026-05-06 02:43 -37.01108 174.78283 26 ft 16 kts 250°
2026-05-06 02:43 -37.01148 174.78136 27 ft 19 kts 251°
2026-05-06 02:43 -37.01194 174.77966 26 ft 22 kts 251°
2026-05-06 02:44 -37.01249 174.77772 26 ft 25 kts 251°
2026-05-06 02:44 -37.01307 174.77553 26 ft 28 kts 252°
2026-05-06 02:44 -37.01373 174.77314 27 ft 23 kts 251°
2026-05-06 02:44 -37.01405 174.77199 26 ft 15 kts 251°
2026-05-06 02:45 -37.01438 174.77120 26 ft 10 kts 216°
2026-05-06 02:45 -37.01512 174.77095 26 ft 12 kts 190°
2026-05-06 02:45 -37.01604 174.77094 27 ft 14 kts 141°
2026-05-06 02:45 -37.01601 174.77188 26 ft 0 kts 71°
2026-05-06 02:46 -37.01601 174.77190 26 ft 2 kts 71°
2026-05-06 02:46 -37.01546 174.77382 26 ft 58 kts 70°
2026-05-06 02:46 -37.01341 174.78128 26 ft 120 kts 70°
2026-05-06 02:46 -37.01015 174.79305 26 ft 165 kts 69°
2026-05-06 02:47 -37.00564 174.80735 408 ft 180 kts 69°
2026-05-06 02:47 -37.00174 174.82250 1134 ft 183 kts 70°
2026-05-06 02:47 -36.99779 174.83747 1925 ft 182 kts 69°
2026-05-06 02:47 -36.99349 174.85320 2297 ft 201 kts 68°
2026-05-06 02:48 -36.98877 174.87014 2601 ft 225 kts 68°
2026-05-06 02:48 -36.98321 174.89011 3118 ft 246 kts 68°
2026-05-06 02:48 -36.97755 174.91053 4000 ft 251 kts 68°
2026-05-06 02:48 -36.97180 174.93134 4919 ft 256 kts 68°
2026-05-06 02:49 -36.96592 174.95251 5840 ft 260 kts 68°
2026-05-06 02:49 -36.95994 174.97402 6744 ft 265 kts 68°
2026-05-06 02:49 -36.95422 174.99612 7558 ft 271 kts 76°
2026-05-06 02:49 -36.95459 175.02006 8333 ft 284 kts 103°
2026-05-06 02:50 -36.96423 175.04190 9121 ft 295 kts 133°
2026-05-06 02:50 -36.98153 175.05601 9874 ft 303 kts 159°
2026-05-06 02:50 -37.00179 175.06494 10420 ft 319 kts 161°
2026-05-06 02:50 -37.02378 175.07325 10666 ft 341 kts 169°
2026-05-06 02:51 -37.04786 175.07559 11180 ft 351 kts 184°
2026-05-06 02:51 -37.07202 175.07093 11873 ft 353 kts 197°
2026-05-06 02:51 -37.09484 175.05960 12598 ft 354 kts 210°
2026-05-06 02:51 -37.11553 175.04269 13335 ft 356 kts 217°
2026-05-06 02:52 -37.13592 175.02483 14053 ft 359 kts 217°
2026-05-06 02:52 -37.15648 175.00670 14691 ft 363 kts 217°
2026-05-06 02:52 -37.17719 174.98841 15323 ft 366 kts 217°
2026-05-06 02:52 -37.19805 174.97000 15965 ft 368 kts 217°
2026-05-06 02:53 -37.21906 174.95148 16600 ft 370 kts 217°
2026-05-06 02:53 -37.24020 174.93286 17232 ft 373 kts 217°
2026-05-06 02:53 -37.26153 174.91409 17870 ft 375 kts 217°
2026-05-06 02:53 -37.28295 174.89520 18514 ft 378 kts 217°
2026-05-06 02:54 -37.30454 174.87607 19092 ft 381 kts 217°
2026-05-06 02:54 -37.31892 174.86332 19484 ft 382 kts 217°
2026-05-06 02:54 -37.34068 174.84403 20109 ft 384 kts 217°
2026-05-06 02:54 -37.36251 174.82470 20750 ft 385 kts 217°
2026-05-06 02:55 -37.38442 174.80529 21382 ft 386 kts 217°
2026-05-06 02:55 -37.40639 174.78580 21995 ft 387 kts 216°
2026-05-06 02:55 -37.42846 174.76623 22585 ft 389 kts 216°
2026-05-06 02:55 -37.45061 174.74657 23155 ft 391 kts 216°
2026-05-06 02:56 -37.47292 174.72676 23729 ft 393 kts 216°
2026-05-06 02:56 -37.49526 174.70690 24225 ft 394 kts 216°
2026-05-06 02:56 -37.51771 174.68691 24677 ft 396 kts 216°
2026-05-06 02:56 -37.54024 174.66683 25115 ft 397 kts 215°
2026-05-06 02:57 -37.56314 174.64798 25524 ft 400 kts 209°
2026-05-06 02:57 -37.58874 174.63390 25938 ft 402 kts 199°
2026-05-06 02:57 -37.61591 174.62495 26365 ft 405 kts 194°
2026-05-06 02:57 -37.64332 174.61659 26791 ft 406 kts 195°
2026-05-06 02:58 -37.67086 174.60808 27211 ft 407 kts 195°
2026-05-06 02:58 -37.69840 174.59948 27621 ft 408 kts 195°
2026-05-06 02:58 -37.72602 174.59078 28032 ft 410 kts 195°
2026-05-06 02:58 -37.75375 174.58204 28445 ft 411 kts 195°
2026-05-06 02:59 -37.78160 174.57327 28853 ft 413 kts 195°
2026-05-06 02:59 -37.80952 174.56450 29248 ft 414 kts 195°
2026-05-06 02:59 -37.83755 174.55576 29650 ft 416 kts 195°
2026-05-06 02:59 -37.86390 174.54755 30017 ft 417 kts 195°
2026-05-06 03:00 -37.89243 174.53865 30405 ft 418 kts 195°
2026-05-06 03:00 -37.92073 174.52978 30727 ft 420 kts 195°
2026-05-06 03:00 -37.94915 174.52085 31030 ft 422 kts 195°
2026-05-06 03:00 -37.97773 174.51242 31435 ft 421 kts 191°
2026-05-06 03:01 -38.00681 174.50788 31852 ft 421 kts 188°
2026-05-06 03:01 -38.03589 174.50389 32265 ft 420 kts 188°
2026-05-06 03:01 -38.06489 174.49992 32685 ft 419 kts 188°
2026-05-06 03:01 -38.09344 174.49600 33093 ft 418 kts 188°
2026-05-06 03:02 -38.12235 174.49204 33506 ft 417 kts 188°
2026-05-06 03:02 -38.15121 174.48803 33927 ft 417 kts 188°
2026-05-06 03:02 -38.18008 174.48400 34299 ft 417 kts 188°
2026-05-06 03:03 -38.23755 174.47599 34379 ft 414 kts 188°
2026-05-06 03:03 -38.29478 174.46797 34380 ft 413 kts 188°
2026-05-06 03:04 -38.35198 174.45993 34382 ft 413 kts 188°
2026-05-06 03:04 -38.40913 174.45198 34383 ft 413 kts 188°
2026-05-06 03:05 -38.46604 174.44412 34385 ft 413 kts 188°
2026-05-06 03:05 -38.52321 174.43616 34393 ft 413 kts 188°
2026-05-06 03:06 -38.58043 174.42802 34393 ft 414 kts 188°
2026-05-06 03:06 -38.63764 174.41992 34392 ft 414 kts 188°
2026-05-06 03:07 -38.69483 174.41196 34390 ft 413 kts 188°
2026-05-06 03:07 -38.75201 174.40393 34391 ft 413 kts 188°
2026-05-06 03:08 -38.80912 174.39583 34401 ft 413 kts 188°
2026-05-06 03:08 -38.86626 174.38774 34397 ft 413 kts 188°
2026-05-06 03:09 -38.92336 174.37968 34398 ft 412 kts 188°
2026-05-06 03:09 -38.98036 174.37159 34397 ft 412 kts 188°
2026-05-06 03:10 -39.03748 174.36346 34401 ft 412 kts 188°
2026-05-06 03:10 -39.09490 174.36183 34402 ft 414 kts 180°
2026-05-06 03:11 -39.15253 174.36515 34397 ft 415 kts 180°
2026-05-06 03:11 -39.21019 174.36852 34397 ft 415 kts 180°
2026-05-06 03:12 -39.26755 174.37176 34400 ft 414 kts 180°
2026-05-06 03:12 -39.32515 174.37513 34396 ft 414 kts 180°
2026-05-06 03:13 -39.38273 174.37856 34393 ft 414 kts 180°
2026-05-06 03:13 -39.44031 174.38183 34392 ft 414 kts 180°
2026-05-06 03:14 -39.49783 174.38509 34383 ft 414 kts 180°
2026-05-06 03:14 -39.55538 174.38844 34378 ft 413 kts 180°
2026-05-06 03:14 -39.58405 174.39011 34088 ft 411 kts 180°
2026-05-06 03:15 -39.61264 174.39176 33354 ft 412 kts 180°
2026-05-06 03:15 -39.64129 174.39343 32752 ft 411 kts 180°
2026-05-06 03:15 -39.66940 174.39508 32241 ft 407 kts 180°
2026-05-06 03:15 -39.69797 174.39677 31732 ft 404 kts 180°
2026-05-06 03:16 -39.72573 174.39838 31221 ft 401 kts 180°
2026-05-06 03:16 -39.75358 174.39998 30712 ft 398 kts 180°
2026-05-06 03:16 -39.78119 174.40163 30182 ft 396 kts 180°
2026-05-06 03:16 -39.80865 174.40331 29610 ft 393 kts 180°
2026-05-06 03:17 -39.83597 174.40494 29047 ft 391 kts 180°
2026-05-06 03:17 -39.86304 174.40649 28502 ft 389 kts 180°
2026-05-06 03:17 -39.89004 174.40805 27975 ft 387 kts 180°
2026-05-06 03:17 -39.91685 174.40964 27471 ft 386 kts 180°
2026-05-06 03:18 -39.94362 174.41123 26968 ft 384 kts 180°
2026-05-06 03:18 -39.97028 174.41280 26499 ft 383 kts 180°
2026-05-06 03:18 -39.99651 174.41433 26056 ft 382 kts 180°
2026-05-06 03:18 -40.02302 174.41586 25621 ft 381 kts 180°
2026-05-06 03:19 -40.04945 174.41742 25209 ft 379 kts 180°
2026-05-06 03:19 -40.07576 174.41899 24791 ft 378 kts 180°
2026-05-06 03:19 -40.09349 174.42002 24512 ft 377 kts 180°